Location: Rottenacker
(48.2350°N, 9.6886°E)
Time: 20:00:04
(UTC+01:00)

N. Korean satellite - Visible Passes

Search period start: 19 January 2018 00:00
Search period end: 29 January 2018 00:00
Orbit: 459 x 515 km, 97.2° (Epoch: 19 January)

Date Brightness Start Highest point End Pass type
(mag) Time Alt. Az. Time Alt. Az. Time Alt. Az.
19 Jan 7.6 06:53:27 10° NNE 06:56:50 47° E 07:00:10 10° S visible
19 Jan 7.3 17:33:09 10° SE 17:36:23 32° ENE 17:39:36 10° N visible
19 Jan 9.4 19:07:18 10° SW 19:09:59 19° W 19:12:38 10° NW visible
20 Jan 9.0 06:30:09 10° NE 06:33:03 25° E 06:35:57 10° SSE visible
20 Jan 8.3 18:42:51 10° SSW 18:46:11 35° W 18:49:29 10° NNW visible
21 Jan 9.9 06:07:22 10° ENE 06:09:12 14° E 06:11:02 10° ESE visible
21 Jan 6.9 18:18:53 10° S 18:22:28 69° WSW 18:26:00 10° NNW visible
22 Jan 6.4 07:15:51 10° NNE 07:19:20 86° WNW 07:22:47 10° SSW visible
22 Jan 6.5 17:55:17 10° SSE 17:58:48 60° ENE 18:02:18 10° N visible
22 Jan 10.2 19:31:42 10° WSW 19:32:41 11° W 19:33:40 10° WNW visible
23 Jan 7.7 06:52:16 10° NNE 06:55:38 46° E 06:58:58 10° S visible
23 Jan 9.4 19:06:08 10° SW 19:08:48 20° W 19:11:27 10° NW visible
24 Jan 9.1 06:28:58 10° NE 06:31:51 24° E 06:34:44 10° SSE visible
24 Jan 8.3 18:41:41 10° SSW 18:45:00 35° W 18:48:16 10° NNW visible
25 Jan 9.9 06:06:11 10° ENE 06:07:59 13° E 06:09:47 10° ESE visible
25 Jan 6.8 18:17:43 10° S 18:21:16 71° WSW 18:24:46 10° NNW visible
26 Jan 6.5 07:14:38 10° NNE 07:18:07 89° WNW 07:21:36 10° SSW visible
26 Jan 6.5 17:54:07 10° SSE 17:57:36 58° ENE 18:01:03 10° N visible
26 Jan 10.2 19:30:27 10° WSW 19:31:28 11° W 19:32:27 10° WNW visible
27 Jan 7.8 06:51:04 10° NNE 06:54:24 45° E 06:57:45 10° S visible
27 Jan 9.4 19:04:56 10° SW 19:07:34 20° W 19:10:13 10° NW visible
28 Jan 9.1 06:27:44 10° NE 06:30:36 24° E 06:33:30 10° SSE visible
28 Jan 8.2 18:40:29 10° SSW 18:43:46 36° W 18:47:01 10° NNW visible
